[[{"header":{"parameterUnit":"m.s-1","parameterCategory":1,"la1":30.2992,"la2":30.254,"lo1":-89.0895,"lo2":-89.0443,"dy":0.0025,"dx":0.0025,"nx":19,"ny":19,"refTime":"2026-05-04T09:00:00:Z","depth":0,"parameterNumber":2,"parameterNumberName":"U-component_of_WINDS"},"data":[0,0,0,-0.4342,-0.4343,-0.4403,-0.4403,-0.4473,-0.4473,0,0,0,0,0,0,0,0,0,0,0,-0.4319,-0.4319,-0.4342,-0.4343,-0.4403,-0.4403,-0.4473,-0.4473,0,0,0,0,0,0,0,0,0,0,0,-0.4319,-0.4319,-0.4319,-0.4344,-0.4402,-0.4403,-0.4472,-0.443,0,0,0,0,0,0,0,0,0,0,-0.4374,-0.4347,-0.4319,-0.4319,-0.4344,-0.4402,-0.4403,-0.4428,-0.4433,-0.4443,0,-0.4448,0,-0.4462,-0.4477,-0.4478,0,0,0,-0.4348,-0.4343,-0.4364,-0.4319,-0.4344,-0.4402,-0.4377,-0.4431,-0.4436,-0.4449,-0.4449,-0.4452,-0.4463,-0.4478,-0.4478,-0.4514,-0.4514,0,0,-0.4345,-0.4327,-0.436,-0.4367,-0.4355,-0.4375,-0.4379,-0.4434,-0.4434,-0.4449,-0.4454,-0.4464,-0.4478,-0.4479,-0.4515,-0.4514,0,0,0,-0.4332,-0.4324,-0.4344,-0.4363,-0.4374,-0.4377,-0.4381,-0.4432,-0.444,-0.4455,-0.4465,-0.4478,-0.4479,-0.4515,-0.4515,-0.4494,0,0,0,-0.433,-0.4317,-0.4343,-0.4332,-0.4373,-0.4404,-0.4377,-0.4436,-0.4443,-0.4464,-0.4479,-0.448,-0.4515,-0.4515,-0.4495,-0.4488,0,0,0,-0.4317,-0.4316,-0.4322,-0.4331,-0.4356,-0.4403,-0.4414,-0.4438,-0.4449,-0.4478,-0.448,-0.4515,-0.4515,-0.4496,-0.4489,-0.4493,0,0,0,-0.4298,-0.4304,-0.4321,-0.4332,-0.4355,-0.4389,-0.4414,-0.4441,-0.4463,-0.4479,-0.4515,-0.4515,-0.4496,-0.449,-0.4493,-0.4492,-0.449,0,0,-0.4296,-0.4303,-0.4311,-0.4328,-0.4354,-0.4382,-0.4406,-0.4444,-0.4464,-0.4497,-0.4498,-0.4495,-0.4489,-0.4493,-0.4484,-0.4482,0,0,0,-0.4304,-0.4309,-0.432,-0.434,-0.4368,-0.4393,-0.4428,-0.4443,-0.4472,-0.4477,-0.4498,-0.4495,-0.4498,-0.4498,-0.4496,-0.45,-0.4514,-0.4514,-0.4514,-0.4275,-0.4299,-0.4314,-0.4345,-0.4364,-0.4402,-0.442,-0.4446,-0.4466,-0.447,-0.448,-0.4472,-0.4471,-0.447,-0.4474,-0.4482,-0.4482,-0.4481,-0.4481,-0.4274,-0.4285,-0.4311,-0.4334,-0.436,-0.4381,-0.4418,-0.4431,-0.4456,-0.4466,-0.447,-0.4479,-0.4467,-0.4472,-0.448,-0.448,-0.4481,-0.4481,-0.4481,-0.4258,-0.4267,-0.4284,-0.4315,-0.4337,-0.437,-0.4392,-0.4416,-0.4438,-0.4442,-0.4456,-0.4456,-0.446,-0.4447,-0.4447,-0.4447,-0.4447,-0.4447,-0.4447,-0.4234,-0.4254,-0.4268,-0.4299,-0.4315,-0.434,-0.4378,-0.4395,-0.4421,-0.4437,-0.4437,-0.4456,-0.4461,-0.4462,-0.4446,-0.4446,-0.4446,-0.4446,-0.4446,-0.4224,-0.423,-0.4252,-0.4269,-0.4308,-0.4328,-0.4358,-0.4392,-0.441,-0.442,-0.4439,-0.4439,-0.4449,-0.445,-0.4451,-0.4433,-0.4433,-0.4433,-0.4433,-0.4211,-0.4217,-0.4246,-0.427,-0.4297,-0.4327,-0.4353,-0.4384,-0.4417,-0.443,-0.4436,-0.4439,-0.444,-0.4449,-0.4451,-0.4452,-0.4435,-0.4435,-0.4435,-0.4206,-0.4217,-0.4234,-0.4264,-0.4297,-0.4325,-0.4351,-0.438,-0.4419,-0.4436,-0.4441,-0.4441,-0.4446,-0.4447,-0.4463,-0.4465,-0.4468,0,0]},{"header":{"parameterUnit":"m.s-1","parameterCategory":1,"la1":30.2992,"la2":30.254,"lo1":-89.0895,"lo2":-89.0443,"dy":0.0025,"dx":0.0025,"nx":19,"ny":19,"refTime":"2026-05-04T09:00:00:Z","depth":0,"parameterNumber":3,"parameterNumberName":"V-component_of_WINDS"},"data":[0,0,0,6.7836,6.7839,6.7956,6.7956,6.8117,6.8118,0,0,0,0,0,0,0,0,0,0,0,6.7813,6.7814,6.7836,6.7839,6.7956,6.7956,6.8117,6.8119,0,0,0,0,0,0,0,0,0,0,0,6.7812,6.7814,6.7816,6.784,6.7956,6.7956,6.8116,6.8023,0,0,0,0,0,0,0,0,0,0,6.7908,6.7897,6.7813,6.7816,6.7841,6.7956,6.7957,6.8019,6.8029,6.807,0,6.8113,0,6.8118,6.813,6.8131,0,0,0,6.7831,6.7889,6.7911,6.7816,6.7842,6.7956,6.7901,6.8024,6.8036,6.8084,6.8115,6.812,6.8121,6.8131,6.8132,6.8404,6.8406,0,0,6.7824,6.7839,6.7902,6.7919,6.7906,6.7897,6.7905,6.8031,6.8064,6.8115,6.8124,6.8124,6.8133,6.8134,6.8402,6.8404,0,0,0,6.7812,6.7835,6.7853,6.7913,6.7933,6.7901,6.7909,6.8059,6.8064,6.8125,6.8126,6.8134,6.8136,6.8401,6.8403,6.85,0,0,0,6.7807,6.7827,6.7851,6.7861,6.7931,6.7998,6.7934,6.8055,6.8069,6.8125,6.8134,6.8138,6.8399,6.8402,6.8493,6.8543,0,0,0,6.7801,6.7826,6.7847,6.7861,6.7912,6.7996,6.8008,6.8058,6.807,6.8131,6.8138,6.8397,6.8401,6.8488,6.8533,6.8617,0,0,0,6.7798,6.7932,6.7849,6.7998,6.7912,6.8056,6.8007,6.8114,6.8178,6.8135,6.8399,6.8403,6.8486,6.8527,6.8611,6.869,6.8725,0,0,6.7975,6.7954,6.8041,6.7969,6.8133,6.8037,6.8214,6.8258,6.8249,6.8352,6.8358,6.8496,6.8533,6.8616,6.8917,6.8945,0,0,0,6.8101,6.8163,6.8204,6.8267,6.8305,6.834,6.8356,6.8372,6.8458,6.8306,6.8549,6.8571,6.8619,6.8656,6.8679,6.8718,6.8421,6.8421,6.842,6.8373,6.8355,6.8495,6.8492,6.8553,6.8567,6.8614,6.8636,6.8601,6.8658,6.8688,6.8874,6.8917,6.8935,6.8976,6.873,6.873,6.873,6.8731,6.8629,6.8713,6.8661,6.8779,6.8758,6.8856,6.8873,6.8844,6.8929,6.885,6.8891,6.8806,6.8966,6.9001,6.8738,6.8737,6.8736,6.8735,6.8734,6.8803,6.884,6.8858,6.8945,6.9013,6.9003,6.9087,6.9065,6.9044,6.9086,6.9113,6.9112,6.9105,6.9101,6.9101,6.9102,6.9103,6.9103,6.9103,6.8977,6.8994,6.9069,6.9119,6.9155,6.9198,6.9212,6.9245,6.9276,6.9253,6.9253,6.9209,6.8986,6.893,6.9113,6.9111,6.911,6.9109,6.9109,6.9242,6.9178,6.9294,6.933,6.9384,6.9451,6.9422,6.9491,6.9515,6.9557,6.9504,6.9343,6.9319,6.93,6.9253,6.9509,6.9509,6.9509,6.9509,6.9388,6.9374,6.9486,6.9544,6.9598,6.9582,6.9709,6.9719,6.9719,6.9732,6.9692,6.9628,6.9609,6.9596,6.9571,6.9526,6.9846,6.9847,6.9847,6.9548,6.9538,6.9652,6.9653,6.9693,6.9727,6.9845,6.991,6.9897,6.986,6.9741,6.9727,6.9623,6.9591,6.9551,6.9512,6.943,0,0]}]]